Regional Weather Roundup
Issued by NWS

Home | Current Version | Previous Version | Graphics & Text | Print | Product List | Glossary On
Versions: 1 2 3 4 5 6 7 8 9 10 11 12 13 14 15 16 17 18 19 20 21 22 23 24 25 26 27 28 29 30 31 32 33 34 35 36 37 38 39 40 41 42 43 44 45 46 47 48 49 50
000
ASUS43 KMKX 222000
RWRWI

WISCONSIN REGIONAL WEATHER ROUNDUP
NATIONAL WEATHER SERVICE MILWAUKEE/SULLIVAN WI
300 PM CDT MON SEP 22 2014

NOTE: "FAIR" INDICATES FEW OR NO CLOUDS BELOW 12,000 FEET WITH NO
SIGNIFICANT WEATHER AND/OR OBSTRUCTIONS TO VISIBILITY.

WIZ001-002-006>008-014>016-023>028-222100-
NORTHWEST WISCONSIN

CITY           SKY/WX    TMP DP  RH WIND       PRES   REMARKS
SUPERIOR ARPT  SUNNY     72  52  49 W12G17    30.12F
ASHLAND        SUNNY     70  52  52 W8        30.14F
HAYWARD        MOSUNNY   67  50  54 SW9       30.17F
SIREN          MOSUNNY   69  48  47 W9        30.18F
RICE LAKE      MOSUNNY   67  50  54 NW9       30.21F
LADYSMITH      SUNNY     67  50  54 W9        30.21F
EAU CLAIRE     NOT AVBL
MENOMONIE      PTCLDY    69  49  48 SW8       30.21F
NEW RICHMOND   SUNNY     68  49  50 W10       30.21F
OSCEOLA        SUNNY     70  52  53 SW10      30.23F
$$

WIZ003>005-009-010-017-018-222100-
NORTH CENTRAL WISCONSIN

CITY           SKY/WX    TMP DP  RH WIND       PRES   REMARKS
WOODRUFF       MOSUNNY   63  47  56 W9G18     30.17S
RHINELANDER    SUNNY     65  47  52 W14       30.18F
EAGLE RIVER    SUNNY     64  44  49 W9        30.16S
LAND O LAKES   SUNNY     65  46  50 W7        30.16S
PHILLIPS       SUNNY     63  49  59 SW7       30.18F
TOMAHAWK       SUNNY     64  47  54 W12       30.18F
MEDFORD        MOSUNNY   64  50  60 W6        30.21S
MERRILL        SUNNY     65  49  56 W10G17    30.19S
$$

WIZ029-030-035-036-043>047-222100-
CENTRAL WISCONSIN

CITY           SKY/WX    TMP DP  RH WIND       PRES   REMARKS
WAUSAU         SUNNY     65  48  54 W13       30.18F
MOSINEE        MOSUNNY   64  50  59 W12G17    30.20F
MARSHFIELD     MOSUNNY   68  51  54 NW12      30.20F
STEVENS POINT  MOSUNNY   64  47  54 W10G17    30.21F
WAUPACA        MOSUNNY   68  48  49 W9        30.20F
WAUTOMA        NOT AVBL
WISC RAPIDS    MOSUNNY   68  48  48 W13       30.21F
CAMP DOUGLAS   NOT AVBL
$$

WIZ011>013-019>022-031-037>040-048>050-222100-
NORTHEAST WISCONSIN

CITY           SKY/WX    TMP DP  RH WIND       PRES   REMARKS
ANTIGO         MOSUNNY   64  48  56 W8G20     30.18F
STURGEON BAY   SUNNY     64  46  52 SW14G20   30.17F
GREEN BAY      MOSUNNY   67  48  50 W10       30.18F
MANITOWOC      NOT AVBL
APPLETON       PTSUNNY   66  45  45 W12       30.20F
CLINTONVILLE   PTSUNNY   66  45  45 W10G17    30.19S
OSHKOSH        MOSUNNY   67  48  50 W8        30.20F
$$

WIZ032>034-041-042-053>061-222100-
SOUTHWEST WISCONSIN

CITY           SKY/WX    TMP DP  RH WIND       PRES   REMARKS
LA CROSSE      SUNNY     72  51  47 NW7       30.21F
SPARTA         MOSUNNY   66  48  51 W6        30.24F
VIROQUA        FAIR      68  48  49 W9        30.24F
BOSCOBEL       MOSUNNY   70  49  47 W8        30.24F
PRAIRIE DU CHI SUNNY     70  46  42 W8        30.24F
PLATTEVILLE    FAIR      68  46  44 W8        30.26F
$$

WIZ056-057-062-063-064-067-068-222100-
SOUTH CENTRAL WISCONSIN

CITY           SKY/WX    TMP DP  RH WIND       PRES   REMARKS
BARABOO/DELLS  MOSUNNY   66  46  48 NW7       30.23F
LONE ROCK      NOT AVBL
WATERTOWN      SUNNY     67  46  46 W8        30.23S
MADISON        MOSUNNY   68  46  45 W10       30.23F
MIDDLETON      FAIR      69  46  43 W12       30.24F
MONROE         SUNNY     66  45  45 W7        30.25F
JANESVILLE     SUNNY     68  41  37 W6        30.23F
$$

WIZ051-052-058>065-066-070>072-222100-
SOUTHEAST WISCONSIN

CITY           SKY/WX    TMP DP  RH WIND       PRES   REMARKS
MILWAUKEE      MOSUNNY   67  43  41 NW10      30.23F
WAUKESHA       MOSUNNY   64  43  45 W7        30.24F
MILWAUKEE/TIMM SUNNY     66  41  39 W7        30.23F
RACINE         SUNNY     66  45  46 W8        30.25F
BURLINGTON     SUNNY     66  42  42 W5        30.23F
KENOSHA        SUNNY     66  47  50 VRB6      30.24F
FOND DU LAC    MOSUNNY   68  47  46 W13       30.21F
SHEBOYGAN      SUNNY     67  44  43 NW12      30.21F
WEST BEND      PTSUNNY   66  43  42 SW10      30.22F
JUNEAU         PTSUNNY   66  47  51 W10G17    30.24S
$$

LSZ147-162-222100-
LAKE SUPERIOR

STATION/POSITION TIME  TEMP    WIND        PRES    WAVE
                       AIR SEA DIR/SP/G            HT/PER
                 (UTC) (F)     (DEG/KT/KT) (MB)    (FT/S)
W MID LAKE BUOY  1850   52 46  220/ 14/ 14 1019.4F   2/ 4
DEVILS ISLAND    1900   58     230/ 13/ 16 1020.0F
PORT WING        1940   68     250/  9/ 16 1020.0F
SAXON HARBOR     1900   67     240/  9/ 14 1021.0F
$$

LMZ867-665-643>646-222100-
LAKE MICHIGAN

STATION/POSITION TIME  TEMP    WIND        PRES    WAVE
                       AIR SEA DIR/SP/G            HT/PER
                 (UTC) (F)     (DEG/KT/KT) (MB)    (FT/S)
N MID LAKE BUOY  1850   56 57  230/ 14/ 17 1021.1F   2/ 3
NORTHPORT PIER   1900   64     260/  5/ 14 1021.0F
KEWAUNEE LAKESHO 1900   65     330/  5/ 10 1021.2F
SHEBOYGAN LAKESH 1900   63 56  300/ 11/ 13 1023.6F
PORT WASHINGTON  1900   66     300/  6/ 13 1024.0F
ATWATER BUOY     1900   61     110/  8/ 10 1024.6F
MILWAUKEE LAKESH 1900   63     260/  8/ 12   N/A
S MID LAKE BUOY  1850   56 62  250/  8/ 10 1025.1F   2/ 7
KENOSHA   LAKESH 1900   59     140/  8/ 12 1024.0F
$$

TC  - TEMPERATURE IN CELSIUS
VSB - VISIBILITY IN STATUTE MILES
WCI - WIND CHILL INDEX
HX  - HEAT INDEX



USA.gov is the U.S. government's official web portal to all federal, state and local government web resources and services.